Home Rules Search Enroll Grooms Brides Divorcee Success Stories Response Magazine Photo Edit
 
Grooms
 
If you want contact details of matching profiles, please submit these registration numbers through RESPONSE option along with your registration number and registered email address.
 
Reg.No Reg-Dt Height Birth-Dt Education Residence Occupation
             
 
MB42718 03/03/15 6.01 22/09/84 BE(ELECTRONICS) NAVI MUMBAI SERVICE MUMBAI/--
MB42713 03/03/15 5.07 17/12/84 B.E.(CiVIL), M.E.(STRUCTURES) 1st class in all MUMBAI ASSISTANT MANAGER (TATA consulting engineers) MUMBAI/7 lakhs PA
MB42711 02/03/15 5.08 24/02/88 PGDABM, MUMBAI UNIVERSITY LATUR ASST.MANAGER, THE FEDERAL BANK LTD. KOLHAPUR/50000 PM
MB42710 02/03/15 5.06 19/09/85 DEE,BE ELECTRICAL SOLAPUR JUNIOR ENGINEER ,MSEDCL /4.8 LAKH PA
MB42709 02/03/15 5.10 11/01/84 MS Industrial engineering KOLHAPUR Manufacturing engineer USA/$75000 PA
MB42708 02/03/15 6.02 18/06/84 DEGREE IN HOTEL MANAGEMENT AND CATERING TECHNOLOGY BHMCT THANE SERVICE USA/RS. 7,50,000/- PA
MB42707 02/03/15 5.06 22/09/86 MBA - FINANCE NANDED SERVICE BANK PUNE/420000 PA
MB42706 02/03/15 5.09 04/02/83 MA Eng Literature, Fergusson college MUMBAI Sr Correspondent with English newspaper, Mumbai/--
MB42705 02/03/15 5.07 25/10/86 BHMS, MBA MUMBAI MEDICAL PRACTICE AND CORPORATE SERVICE. MUMBAI/710000 PA
MB42704 02/03/15 5.07 18/10/86 MCA KOLHAPUR SOFTWARE PROFESSION MUMBAI/60000 PM
MB42703 02/03/15 5.04 06/06/88 BE(IT) PUNE S/W ENGINEER, PUNE/6.5 PA
MB42702 01/03/15 5.10 04/11/84 BE (ELECTRICAL) PUNE OWN BUSINESS PUNE/--- PM
MB42701 01/03/15 5.04 22/08/85 M.B.B.S KARAD MEDICAL OFFICER AT PHC KARAD/ PM
MB42700 01/03/15 5.11 08/10/84 BE(E&TC), SAP CERTIFIED, GERMAN LANGUAGE CERTIFIED. NAVI MUMBAI SR CONSULTANT IN CAPGEMINI MUMBAI/9 LAC PA
MB42699 01/03/15 5.08 03/05/86 BE EXTC MUMBAI WIPRO PUNE, MUMBAI/12 LACS PA
MB42698 01/03/15 5.06 08/04/89 M.S CALIFORNIA USA JALNA JOB AT SYMENTEC, CALIFORNIA, USA /50L PA
MB42697 01/03/15 5.07 24/08/89 D.PHARMCY PUNE MEDICAL GEN.STORES PUNE/40000/-PM
MB42696 01/03/15 6.00 13/06/86 CA, BCOM PUNE PRACTICE IN CA PUNE/--
MB42695 01/03/15 5.05 13/01/88 MCA CDAC SOLAPUR SW ENGINEER AMDOCS PUNE/4.40 L PA
MB42694 01/03/15 5.10 29/04/82 MS(USA) LATUR S/W ENGINEER USA/--
MB42693 01/03/15 5.11 09/01/87 B.TECH. A.NAGAR WORKING IN AUTO ANCILLARY JAIPUR/65000 PM
MB42692 01/03/15 5.03 13/11/88 BE ELECTRONICS HYDERABAD FS -ENGINEER HYDERABAD/40000 PM
MB42691 01/03/15 5.07 16/03/85 BE(E&TC), MBA(FINANCE) MUMBAI SERVICE IN MUMBAI/9.5 LAC PA
MB42690 28/02/15 5.06 15/09/87 BE(E&TC) A.NAGAR SERVICE IN TCS PUNE/9 LAC PA
MB42689 28/02/15 5.07 24/08/84 BE(VJTI), MS(MIS)USA JALGAON S/W DEVELOPER USA/$1 LAC PA
MB42688 28/02/15 5.10 10/09/83 BE KOLHAPUR SOFTWARE PROFESSIONAL PUNE/80000 PM
MB42687 28/02/15 5.07 04/04/82 BCOM LATUR BUSINESS LATUR/--
MB42686 28/02/15 5.11 30/08/84 MCA PUNE S/W CONSULTANT IN CAPGEMINI PUNE/5.8 LAC PA
MB42685 28/02/15 5.05 04/03/87 M.B.B.S., APPEARED FOR M.D. ( MEDICINE ) SOLAPUR DOCTOR BARODA/38000 PM
MB42684 28/02/15 5.02 01/01/90 D.PHARM, B.PHARM SANGLI MEDICAL REPRESENTATIVE ISLAMPUR/--
MB42683 28/02/15 5.11 06/10/84 BE(IT) SOLAPUR SERVICE IN MNC PUNE/10 LAC PA
MB42682 28/02/15 5.09 06/12/82 BE(AEROSPACE), MBA(AVIATION) NAGPUR IT/
MB42681 27/02/15 5.05 24/08/85 BAMS PGDEMS KOLHAPUR PRIVATE CLINIC KOLHAPUR/60000 PM
MB42680 27/02/15 5.08 17/03/86 B.A.M.S. A.NAGAR OWN HOSPITAL A.NAGAR/60000 PM
MB42679 27/02/15 5.07 02/11/85 BE (E&TC), PG-DAC, PRIVATE PILOT LICENSE FROM FAA CALIFOORNIA, USA NASHIK SOFTWARE ENGINEER AT HYDERABAD (US BASED MNC)/
MB42678 27/02/15 5.06 02/04/86 B.S.L; LL.M.( U.K.);DIP IN IPR, CYBERLAW, MED NEGLIGENCE MUMBAI LAWYER MUMBAI/1,00,000 PM
MB42677 27/02/15 5.06 13/08/85 B.E. COMPUTER PUNE SOFTWARE ENGINEER PUNE/60000 PM
MB42676 27/02/15 5.08 22/09/87 BE(E & TC) PUNE OWN FAMILY RESTAURANT PUNE/7 LAC PA
MB42675 27/02/15 5.09 20/10/84 BCOM, COMP.ANIMATION DIP PUNE WEBSITE DESIGN, ELECTRIC CONTRACTOR/--
MB42674 27/02/15 5.10 29/08/85 BE(COMP) THANE S/W TEAM LEAD SINGAPORE/--
MB42673 27/02/15 5.08 31/12/83 BCOM, MBA(MKTG), ENG MEDIUM PUNE TECHNICAL MANAGER PUNE/6 LAC PA
MB42672 27/02/15 5.08 20/04/82 MASTER IN BUSINESS ADM, MBA PUNE MANAGER/--
MB42671 27/02/15 5.04 17/07/85 MBA(HR) SATARA PATIENT CARE MANAGER PUNE/2.5 LAC PA
MB42670 27/02/15 5.09 19/03/83 MBBS MUMBAI TEACHING MUMBAI/12,00,000 PA
MB42669 27/02/15 5.03 25/08/83 BHMS PGDEMS SOLAPUR DOCTOR/60000 PM
MB42668 27/02/15 5.10 02/03/83 BE MECHANICAL PUNE IT COMPANY PUNE/10 LACS PA
MB42667 27/02/15 5.05 18/03/88 B.TECH LATUR SOFTWARE ENGINEER PUNE/600000 PA
MB42666 27/02/15 5.10 16/11/85 BE COMPUTER THANE CONSULTANT MUMBAI/60,000 PM
MB42665 26/02/15 5.06 12/09/84 BAMS , MD (AYU) PHD (SCHOLAR) AMRAVATI DOCTOR JAIPUR/40000 PM
MB42664 26/02/15 5.06 27/01/86 MBBS, DCH SOLAPUR SERVICE IN HOSPITAL PUNE/
MB42663 26/02/15 5.06 05/08/87 BE(E&TC) PUNE SERVICE IN MNC PUNE/6 LAC PA
MB42662 26/02/15 5.10 08/02/87 BSC(HORTI), MBA PUNE SERVICE BANK PUNE/--
MB42661 26/02/15 5.05 13/04/87 M.PHARM SATARA HEALTHCARE AHMADABAD(GUJRAT)/--
MB42660 26/02/15 5.05 08/03/85 DIPLOMA CIVIL ENGG. THANE SERVICE IN UAE/--
MB42659 26/02/15 5.07 08/06/85 B.E COMPUTER SCIENCE, DOING MTECH PUNE SENIOR SOFTWARE ENGINEER PUNE/ PM
MB42658 26/02/15 5.07 21/07/86 BSC & PGDBM MUMBAI ASSISTANT MANAGER MUMBAI/7.5 PA
MB42657 26/02/15 5.07 11/07/84 MCS PUNE S/W PROFESSIONAL (Worked in US for 5 years, now in Pune. Have L1-B visa valid till 2016) /$70k per annum
MB42656 26/02/15 5.08 22/02/88 BE (MECHANICAL) SATARA DESIGN ENGINEER AT MUMBAI/40000 PM
MB42655 25/02/15 5.11 12/02/83 MCOM PUNE SERVICE PUNE/20000/-PM
MB42654 25/02/15 5.07 30/09/87 DIPLOMA PUNE CONTRACTOR PUNE/ABOVE 15 LACS PA
MB42653 25/02/15 6.00 15/06/87 B.E.(E&TC) PUNE Business pune/15 LAC PA
MB42652 25/02/15 5.10 23/07/87 DIP.IN IT, MCSE (S/W TESTING) PUNE SERVICE PUNE/2.25 LAC PA
MB42651 25/02/15 5.06 12/06/86 MCA BEED SOFTWARE ENGINEER MUMBAI/45000 PM
MB42650 25/02/15 5.09 27/00/83 B.E.E&TC SANGLI SOFTWARE ENGINEER MUMBAI/50000 PM
MB42649 25/02/15 5.08 16/03/88 BCS PUNE SERVICE IN PUNE /45000 PM
MB42648 25/02/15 5.11 16/12/85 BE (E&TC),MBA KOLHAPUR SENIOR ELECTRONIC ENGINEER MUMBAI/40000 PM
MB42647 25/02/15 5.05 24/10/87 MBA PUNE JOB PUNE/3.8 LAC PA
MB42646 25/02/15 5.06 30/05/86 MBA KOLHAPUR SR. EXECUTIVE OFFICER, ICICI BANK LTD KOLHAPUR/3.6 L + AGRI INCOME PA
MB42645 25/02/15 6.02 26/05/84 B.E. CIVIL (PGPQS) JALGAON CIVIL ENGINEER MUMBAI/5.5 LAKH PA
MB42644 25/02/15 5.09 09/07/91 SY BA PUNE SWEET MART+TRAVELING BUSINESS/1 LAC PM
MB42643 24/02/15 5.06 26/07/86 MCOM, TALLY A.NAGAR GOVT.SERVICE-CLERK A.NAGAR/--
MB42642 24/02/15 5.07 05/05/80 M.B.B.S..M.D.D.N.B.(MED) CHANDRAPUR OWN CLINIC CHANDRAPUR/150000 PM
MB42641 24/02/15 5.07 27/07/90 B.A.M.S. HINGOLI DOCTOR PUNE/15000 PM
MB42640 24/02/15 5.08 04/03/87 BFA(DIGITAL ARTS) PUNE UI DESIGNER PUNE/30000/-PM
MB42639 24/02/15 5.09 23/04/83 BE(MECH) VIT PUNE - DISTINCTION DHULE ASST VICE PRESIDENT IN SINGAPORE/50 LAC PA
MB42638 24/02/15 5.08 03/06/83 BE(CIVIL) A.NAGAR Manager in Reliance, Mumbai /10.66 lacs/Annum
MB42637 24/02/15 5.08 22/08/86 COMPANY SECRETARY, LLB PUNE PVT.PRACTICE AT PUNE/MUMBAI/6 LAC+ PA
MB42636 24/02/15 5.06 17/08/77 BE(ELECTRONICS), DIE PUNE S/W ENGINEER IN MNC PUNE/-
MB42635 24/02/15 5.09 01/06/88 B.E. MECH. M CAD COURSE. PUNE SERVICE PUNE/4.5 LACS PA
MB42634 24/02/15 5.09 10/01/87 BE(ELECTRONICS ENGG) NAVI MUMBAI SOFTWARE DEVELOPER NAVI MUMBAI/700000 PA
MB42633 23/02/15 5.10 31/12/80 BSC(MATHS), DISM KOLHAPUR SERVICE THANE/45000/-PM
MB42632 23/02/15 5.06 11/03/85 BSC, MBA(FIN & MKT) PUNE SERVICE IN FINANCE PUNE/22000/-
MB42631 23/02/15 5.08 18/12/81 ENGINEER BELGAUM SAP CONSULTANT MUMBAI/1250000 PA
MB42630 23/02/15 5.08 12/03/86 BE(COMP) NAVI MUMBAI S/W ENGINEER/7 LAC PA
MB42629 23/02/15 5.09 30/12/86 BE (IT) MUMBAI IT Specialist (IBM USA)/ (Planning to settle in Mumbai)/$88000 PA
MB42628 23/02/15 5.06 31/07/84 BE(MECHANICAL) SATARA PROJECT MANAGER MUMBAI/ PM
MB42627 23/02/15 5.08 22/05/86 MBBS, D.ORTHO(Govt College) PUNE DOCTOR/33000/-PM
MB42626 23/02/15 5.03 18/04/88 M.TECH.CIVIL RAIGAD LECTURE PANVEL/50000 PM
MB42625 23/02/15 6.00 21/04/83 BE COMPUTER SCIENCE PUNE CEO PUNE/36, 50 , 000 PA
MB42624 22/02/15 5.07 01/12/86 CHARTERED FINANCIAL ANALYST (CFA) MUMBAI MARKET RISK ANALYST IN INVESTMENT BANK MUMBAI/70000 PM
MB42623 22/02/15 5.09 02/06/87 B.TECH-CIVIL COEP, MBA(ADVANCED CONSTRUCTION MGMT) PUNE Manager in multinational consultancy firm, Pune/8.5 LAC PA
MB42622 22/02/15 5.11 19/03/86 BE(MECH) PUNE ARMY OFFICER/85000/-
MB42621 22/02/15 5.04 11/04/86 MECH.ENGINEER SATARA SR EXECUTIVE/5 LAC PA
MB42620 22/02/15 5.10 17/08/82 MSC(BOTONY) PUNE FMCG PRODUCTS DISTRIBUTOR/1 LAC PM
MB42618 22/02/15 5.11 09/10/81 MCOM, DIT PUNE BUSINESS+SERVICE PUNE/50000/-PM
MB42617 22/02/15 5.08 19/11/85 BE(MECH) SOLAPUR SERVICE IN PRIVATE COMPANY/6.5 LAC PA
MB42616 22/02/15 5.05 11/05/86 HOTEL MGMT TOURS & TOURISM PUNE SERVICE PUNE/10000/-PM
MB42615 22/02/15 5.11 20/06/86 BSC(PHY), MBA(MKTG) MUMBAI REAL ESTATE,SHARE MARKET, EVENT MGMT BUSINESS/
MB42614 22/02/15 5.08 09/04/86 BE(MECH), MS(MECH)SWEDEN PUNE SERVICE SWEDEN/--
MB42613 22/02/15 5.10 02/05/86 BE(E&TC) PUNE SERVICE/4.5 LAC PA
MB42612 22/02/15 5.08 27/02/83 BSL ,LLM PUNE ADVOCATE PUNE/--
MB42611 22/02/15 5.02 07/03/88 12TH PUNE SERVICE PUNE/2.4 LAC PA
MB42610 22/02/15 5.04 14/02/82 DIP(E&TC), AVAYA CERTIFIED PUNE PROJEST MANAGER PUNE/--
MB42609 22/02/15 5.08 23/06/85 MBBS MD PHYSICIAN BULDANA DOCTOR DELHI/960000 PA
MB42608 22/02/15 5.11 15/02/80 M.PHARMACY THANE R&D - ASSI. MANAGER THANE/60 000 PM
MB42607 22/02/15 5.09 10/10/82 MCS PUNE SERVICE PUNE/2.4 LAC PA
MB42606 21/02/15 5.07 12/12/86 BE PRODUCTION KOLHAPUR SR DESIGN ENGINEER PUNE/6.1 LAC PA
MB42605 21/02/15 5.07 21/07/84 B.E.[MECHANICAL]+CDAC PUNE SOFTWARE ENGINEER PUNE/900000 PA
MB42604 21/02/15 5.11 26/05/88 MCA PUNE SENIOR SOFTWARE ENGINEER PUNE/6 LAC PA
MB42603 21/02/15 5.11 07/10/86 BE(COMP) PUNE SR.S/W ENGINEER IN MNC PUNE/11 LAC PA
MB42602 21/02/15 6.01 27/04/84 M.A.(ENGLISH), M.ED. NANDED TEACHER LATUR/50000 PM
MB42601 21/02/15 5.03 30/11/87 B.COM,MBA-FINANCE, CAIIB,GDC&A PUNE WORKING IN BANK AS DEPUTY MANAGER PUNE/3.3 LAC PA
MB42600 21/02/15 5.07 01/02/86 MBBS PG DMRE SOLAPUR RADIOLOGIST SOLAPUR/ PM
MB42599 21/02/15 5.08 24/06/88 MCA AURANGABAD SOFTWARE ENGINEER PUNE/650000 PA
MB42598 21/02/15 5.09 18/06/86 MBA(MKTG) NAVI MUMBAI SERVICE/6.6 LAC PA
MB42597 21/02/15 5.09 23/01/84 BE(COMP) PUNE S/W ENGINEER PUNE/1.10 LAC PM
MB42596 21/02/15 5.06 04/01/83 BCOM, DME, PGD IN DESIGN & TECHNOLOGY PUNE DESIGN ENGINEER IN PUNE/45000/PM
MB42595 20/02/15 5.10 24/03/87 MCM (MASTERS IN COMPUTER MANAGEMENT) PUNE SOFTWARE ANALYST & QA PUNE/515000 PA
MB42594 20/02/15 5.07 10/01/82 BA, MPM(HR), GDC&A PUNE BPO EXECUTIVE PUNE/2.2 LAC PA
MB42593 20/02/15 5.10 30/06/83 BE(E&TC), MBA(MKT) PUNE IT COMPANY PUNE/4 LAC PA
MB42592 20/02/15 5.08 16/08/84 MBBS, DNB(GEN.MEDI), IDCCM (CRITICAL CARE DIP), DIABETIC DIP. JALGAON SERVICE PUNE/8.4 LAC PA
MB42591 20/02/15 5.11 30/07/87 BE(E&TC) PUNE FLASH ELECTRONICS PUNE/25000/-PM
MB42590 20/02/15 5.08 25/01/87 BE, MS(USA) AMRAVATI ENGINEER IN USA/$1.12 LAC PA
MB42589 20/02/15 5.08 16/10/82 BCOM, LLB PUNE ADVOCATE PUNE/--
MB42587 20/02/15 5.06 18/10/85 MCA PUNE SOFTWARE ENGINEER PUNE/50000 PM
MB42586 20/02/15 5.08 16/11/84 B.ARCH MUMBAI PRACTICING ARCHITECT & INTERIOR DESIGNER MUMBAI/12-15 LACS PA
MB42585 20/02/15 5.08 07/11/87 BCOM CA FOUNDATION MUMBAI SERVICE MUMBAI/406800 PA
MB42584 20/02/15 5.07 21/12/80 BA, LLB, LLM SOLAPUR ADVOCATE PUNE/4 LAC PA
MB42583 20/02/15 5.07 25/07/82 BA PUNE POLICE CONSTABLE MUMBAI/20000/-+PM
MB42582 20/02/15 5.07 21/07/84 BE (E & TC) MUMBAI SERVICE PUNE/11 LAKH PA
MB42581 19/02/15 6.00 18/06/85 BE(ELECTRONICS), MBA PUNE SALES MANAGER A.NAGAR/4.5 LAC PA
MB42580 19/02/15 5.05 13/09/83 M.C.S PUNE SOFTWARE ENGINEER COGNIZANT TECHNOLOGY SOLUTIONS (US-H1B VISA HOLDER) PUNE/9.38 LAKHS PA
MB42579 19/02/15 5.08 12/10/84 BE IN ELECTRONICS AND TELECOMMUNICATION MUMBAI TECHNOLOGY ANALYST PUNE/660000 PA
MB42578 19/02/15 5.08 04/05/87 B.PHARMA AND MBA IN PHARMA THANE MARKETING NAVI MUMBAI/3.8 LAC PA
MB42577 19/02/15 5.03 12/01/87 BA PUNE RELIGARE HSG.FINANCE/18000/-PM
MB42576 19/02/15 5.10 27/01/88 B.E. E&TC AURANGABAD SENIOR ASSOCIATE - SOFTWARE AT SYNECHRON PUNE/9,50,000 PA
MB42575 19/02/15 5.08 05/01/87 DIPLOMA IN COMPUTER ENGINEERING THANE N/W ENGINEER WITH TCS MUMBAI/6.5 LAC PA
MB42574 19/02/15 5.04 14/05/85 BHMS PUNE DOCTOR,OWN CLINIC MUMBAI/1200000 PA
MB42573 19/02/15 5.09 01/11/84 B.TECH(CHEM ENGG) PUNE SR.BUSINESS ANALYST (IT CONSULTING FOR OIL & GAS)/12 LAC PA+
MB42572 19/02/15 5.08 29/01/82 BE-MECHANICAL NANDURBAR DESIGN MANAGER IN L & T BARODA/15.2 LAC PA
MB42571 19/02/15 5.05 14/10/79 B.ARCH, PGDPMBC THANE SERVICE THANE/85000/-PM
MB42570 19/02/15 5.09 27/06/87 MBBS, MD(MEDICINE) NANDED DOCTOR/--
MB42569 19/02/15 5.08 17/12/85 BAMS M.D. MUMBAI OWN CLINIC MUMBAI/ PM
MB42568 19/02/15 5.11 10/09/86 BE(COMP), MBA PUNE SR.S/W ENGINEER PUNE (WORKED IN UK)NOW IN USA HIB VISA./--
MB42567 19/02/15 5.05 16/03/86 M.PHARM PUNE SERVICE MUMBAI/40000/-PM
MB42566 19/02/15 5.06 01/03/84 PGDBM LONDON, HOTEL MGMT SATARA OPERATION MANAGER PUNE/6 LAC+ PA
MB42565 19/02/15 5.07 13/01/89 HOTEL MGMT, MBA(MKTG) PUNE SERVICE/25000/-PM
MB42564 18/02/15 5.11 14/03/86 MBA(FIN), BSC(STAT) NAVI MUMBAI class 1 officer, LIC, vashi, navi mumbai/60000/-PM
MB42563 18/02/15 6.01 19/09/87 BE(E&TC) PICT PUNE PUNE SR.SOFTWARE ENGINEER PUNE/ PM
MB42562 18/02/15 5.05 26/05/83 BE(E&TC) PUNE SERVICE PUNE/8.5 LAC PA
MB42561 18/02/15 6.00 10/09/85 BE(MECH), M.TECH, CAD/CAM PUNE SR.DESIGNING ENGG PUNE/8 LAC PA
MB42560 18/02/15 5.06 23/08/88 BAMS, PGDEMS KARAD OWN CLINIC DIST.KARAD/50000/-PM
MB42559 18/02/15 5.04 05/08/89 M.TECH(IIT) KHARAGPUR PUNE ASSOCIATE IN MNC PUNE/1 LAC PM
MB42558 18/02/15 5.08 25/04/86 MBBS , PREPARING FOR PG AURANGABAD MEDICAL OFFICER MUMBAI/60000+ PM
MB42557 18/02/15 5.10 13/08/84 LLB PUNE ADVOCATE/--
MB42556 18/02/15 5.06 03/12/86 BCOM, DIP.IN WEB DESIGN & DEVP, ADV.DIP.VFX, DIP.IN ANIMATION PUNE WEB DEVELOPER PUNE/20000/+PM
MB42555 18/02/15 5.09 15/10/84 BE EXTC NAVI MUMBAI SOFTWARE ENGINEER NAVI MUMBAI/600000 PA
MB42554 18/02/15 5.09 29/06/82 BE (E&TC) PUNE SOFTWARE DEVELOPER PUNE/64,400 PM
MB42553 18/02/15 5.05 28/06/87 B.TECH(NITK SURATKAL) MBA(SITM PUNE) PUNE MANAGER-SALES & BUSINESS DEVELOPMENT MALAYSIA (KAULALAMPUR)/200000 PM
MB42552 18/02/15 5.10 27/11/85 MBA - FINANCE PUNE SERVICE PUNE/ PM
MB42551 18/02/15 5.05 25/10/80 BCOM, DIPLOMA IN ANIMATION & 3 D & VFX MUMBAI Free Lancing,( On line Animation Work at home) & also searching job./25000/-PM
MB42550 18/02/15 5.10 06/09/85 MBA & DME PUNE ASST. MANAGER PURCHASE PUNE/32000 PM
MB42549 17/02/15 5.08 07/09/83 MCS PUNE Software Lead at Amdocs pvt Ltd./12 LACS PA
MB42548 17/02/15 5.10 08/09/87 BE(E&TC) PUNE DESIGN ENGINEER BANGALORE/7.5 LAC
MB42547 17/02/15 5.05 07/07/85 MCA SATARA S/W PROFESSIONAL/6 LAC PA
MB42546 17/02/15 5.07 22/07/84 BE(MECH), MS(SUPPLY CHAIN MGMT) KARAD SERVICE IN USA/--
MB42545 17/02/15 5.11 18/04/85 MBBS , DNB (RADIOLOGY 2ND YEAR) SANGLI STUDING /40000 PM
MB42544 17/02/15 5.11 29/01/87 BCOM, MCM PUNE SERVICE PUNE/30000/-PM + AGRICULTUR 50000/-
MB42543 17/02/15 5.07 18/06/85 BSC(HOTEL & TOURISM MGMT), POST DIP(HOTEL & TOURISM MGMT) UK PUNE SERVICE (CHEF) CANADA/--
MB42542 17/02/15 5.11 31/03/78 BE(PROD), ENGINEER IN PROD. PUNE REAL ESTATE AGENCY+CLASSES/--
MB42541 17/02/15 6.00 01/07/89 MCA PUNE IT EMPLOYEE PUNE/60,000 PM
MB42540 17/02/15 6.01 30/09/86 DME, BE (MECH)& Dip in Auto CAD,CAM, & PRO-E. NAVI MUMBAI ASST.MANAGER IN MNC/5 LAC PA
MB42539 17/02/15 5.06 01/04/86 M PHARMACY SOLAPUR SERVICE-COGNIZANT NAVI MUMBAI/30000 PM
MB42538 17/02/15 5.10 16/08/85 BE (MECHANICAL) PUNE SR ENGINEER PUNE/10 LACS PA
MB42537 17/02/15 5.11 25/06/86 MSC(COMP) THANE SERVICE MUMBAI/5.20 LAC PA
MB42536 17/02/15 5.05 10/01/81 MCS, MCPD PUNE TECHNICAL LEAD PUNE/11 LAC PA
MB42535 17/02/15 5.09 04/04/84 B.Sc.(MATHS) ,LST From (UK) MUMBAI SATURATED UNDERWATER SYSTEM TECHNICIAN, COUNTRY: MUMBAI AND OUT OF COUNTRY./23 LACK PA
MB42534 17/02/15 5.06 29/05/82 BE(E&TC), CCNA, CCNP PUNE SERVICE MUMBAI/4 LAC PA
MB42533 17/02/15 5.08 29/10/86 M.TECH(BIOPROCESS TECH) PUNE EXECUTIVE OFFICER PUNE/7 LAC PA
MB42532 16/02/15 5.05 29/06/85 MCOM PUNE SERVICE/--
MB42531 16/02/15 6.00 14/09/85 M.C.A. PUNE ASST. PROFESSOR PUNE/25000 PM
MB42530 16/02/15 5.05 15/07/84 BE(CSE), MBA SOLAPUR SOFTWARE ENGINEER PUNE/3.6 PA
MB42529 16/02/15 5.07 03/12/86 BSC, D.PHARMACY PUNE MEDICAL SHOP IN PUNE/50000/-PM
MB42528 16/02/15 5.08 05/01/84 BE(COMP.SCI) KOLHAPUR Service in IT Company, Pune /11 LAC PA
MB42527 16/02/15 5.08 05/09/86 B.E. PUNE DISTRICT PROJECT MANAGER, COLLECTOR OFFICE, SATARA/420000 PA
MB42526 16/02/15 6.01 09/02/84 BSC -MBA FINANCE AKOLA BUSINESS ANALYST (PATANI -IGATE) PUNE/8.5 LAC PA
MB42525 16/02/15 5.11 22/07/87 BSC COMP SCI OSMANABAD PILOT IN INDIAN AIR FORCE /1,00,000 PM
MB42524 16/02/15 6.00 26/11/84 MBBS MD DA A.NAGAR / PM
MB42523 16/02/15 5.09 01/02/82 B.E - PRODUCTION PALGHAR SERVICE - MNC MUMBAI/720,000.00 PA
MB42522 16/02/15 5.08 21/08/87 M.B.A (OPERATIONS), POST GRADUATE DIPLOMA IN CLINICAL RESEARCH, B. PHARM PUNE MANAGEMENT STAFF-PHARMACOVIGILANCE MUMBAI/RS.7,20,000/- PA
MB42521 16/02/15 5.04 27/05/86 MBA (MATERIALS) + BE (MECHANICAL) NAVI MUMBAI MANAGER IN TATA PROJECTS LTD MUMBAI/9 LACS PA
MB42520 15/02/15 5.08 24/11/85 BE(CIVIL) KOLHAPUR SERVICE IN CONST. TECH. PVT. LTD PUNE/4.68 LAC PA
MB42519 15/02/15 5.05 07/09/79 BSC(AGRI) KOLHAPUR BUSINESS PUNE/
MB42518 15/02/15 5.06 05/09/87 BSC(COMP) PUNE NETWORK ADMINISTRATOR IN IT COMPANY PUNE/3 LAC PA
MB42517 15/02/15 5.08 21/05/87 BE(IT) PUNE IT ENGG PUNE/--
MB42516 15/02/15 5.06 19/05/82 MBA(MKTG) PUNE ADITYA BIRLA GROUP PUNE/70000/-PM
MB42515 15/02/15 5.10 04/12/84 Perusing MBA IT from COEM, Pune University. PUNE UNIX ANALYST IN BMC S/W /10 LAC PA
MB42514 15/02/15 5.06 28/04/85 B.E. (COMP.) MUMBAI S/W ENGINEER MUMBAI/ 5 LACKS PA
MB42513 15/02/15 5.09 04/02/86 M B A (H. R. MKTG) GOA ASST.MANAGER (H.R..TATA GROUP) GOA/400000 PA
MB42512 15/02/15 5.05 14/04/85 BE(COMP) PUNE SERVICE S/W ENGINEER PUNE/4.8 LAC PA
MB42511 14/02/15 5.07 14/09/84 MBBS MD(PHARMAC) PGDDM(JHU) NAGPUR MEDICAL ADVISOR, UNICHEM LABS /850000 PA
MB42510 14/02/15 5.07 09/01/81 BSC, PG DIPLOMA IN STATISTICS MUMBAI SERVICE MUMBAI/400000 PA
MB42509 14/02/15 5.07 11/10/88 BE(COMP) PUNE SERVICE IN AMDOCS USA/75000/-PM
MB42508 14/02/15 5.05 04/07/87 ME(ELECTRONICS) SATARA ASST.PROFESSOR LONAVALA/50400/-PM
MB42506 14/02/15 5.06 01/01/83 BE(ELECT), MCM PUNE APPLICATION DEVELOPER PUNE/--
MB42505 14/02/15 5.07 28/06/88 BE(MECH) PUNE BUSINESS (EXPORT AND IMPORT OF ALL TYPES OF ENGG. MATERIAL ) PUNE/--
MB42504 14/02/15 5.11 15/09/88 MD RADIOLOGY 2ND YEAR AT LTMMC ,SION HOSPITAL SANGLI / PM
MB42503 14/02/15 5.08 02/02/87 BCS, MBA(HR) PUNE SR.HR EXECUTIVE IN MNC PUNE/4.8 LAC PA
MB42502 14/02/15 5.05 02/05/88 BFT(BACHELOR OF FOREIGN TRADE), MBA(INDUSTRIAL BUSINESS) A.NAGAR SERVICE+GOVT. CONTRACTOR+AGRI PUNE/1 LAC+ PM
MB42501 14/02/15 5.04 13/08/85 BCOM PUNE SERVICE IN PHARMA COMPANY PUNE/32000/-PM
MB42500 14/02/15 5.09 20/09/90 BDS SATARA GAS AGENCY+HOTEL+AGRI/3 LAC PM
MB42499 14/02/15 5.10 18/10/78 BA, MSCIT, (A/C,FREEZ COURSE,POULTRY PHARM COURSE) PUNE CENTRAL GOVT. JOB PUNE(PERMANENT SERVICE)/25000/- PM
MB42498 13/02/15 5.07 31/07/87 MASTERS IN COMPUTER MANAGEMENT PUNE SR. EXECUTIVE(OPERATION) PUNE/2-3 LAC PA
MB42497 13/02/15 5.08 19/01/87 B.TECH PUNE BUSINESS PUNE/6 LAC PA
MB42496 13/02/15 5.07 01/07/86 B.E. COMP SCI MUMBAI SAP ABAP CONSULTANT MUMBAI/400000 PA
MB42495 13/02/15 5.11 05/06/85 M.S. IN TECHNOLOGY MANAGEMENT AKOLA SOFTWARE DEVELOPER USA/58,00,000 PA
MB42494 13/02/15 6.00 02/05/86 MBBS, MS(ORTHO), D.ORTHO, DNB(ORTHO)(GOING ON) MUMBAI ORTHOPEDIC SURGEON MUMBAI/--
MB42493 13/02/15 5.07 04/12/85 12TH PUNE SERVICE PUNE/--
MB42492 13/02/15 5.05 29/07/81 BE(MECH), PG(PRODUCT DESIGN) PUNE BUSINESS OWN RESORT+SOLAR PRODUCT DEALERSHIP/--
MB42491 13/02/15 5.06 31/07/87 M.SC (BIOTECH), M.B.A PUNE RESEARCH OFFICER BANGALORE/55000 PM
MB42490 13/02/15 5.09 20/10/87 BE MECHANICAL PUNE EMPLOYEE PUNE/375000 PA
MB42489 13/02/15 5.07 30/08/76 BSC(CHEM), MPA, IRPM BARODA BRANCH MANAGER IN GEN.INSURANCE COMPANY BARODA/8 LAC PA+
MB42488 13/02/15 5.06 22/05/87 MCA MUMBAI SOFTWARE ENGINEER MUMBAI/600000 PA
MB42487 13/02/15 6.00 01/08/84 M.E. INFO TECH SANGLI ASSISTANT PROFESSOR PUNE/60000 PM
MB42486 13/02/15 5.07 08/07/85 BE(COMP) PUNE SERVICE SYMANTEK/ --
MB42485 13/02/15 5.07 04/05/84 MBBS,DOMS(2ND YR) SOLAPUR DOCTOR(OPHTHAMOLOGIST) SOLAPUR/ PM
MB42484 13/02/15 5.05 11/07/86 M.SC.(COMPUTER SCIENCE) PUNE SOFTWARE ENGINEER PUNE/750000 PA
MB42483 12/02/15 5.04 21/12/85 ME(ELECTRONICS) OSMANABAD ASSISTANT PROFESSOR/32000 PM
MB42482 12/02/15 5.10 03/03/86 BE-MECH SOLAPUR JOB IN MNC PUNE/9.15 LAKH PA
MB42481 12/02/15 5.07 30/07/88 BHMCT A.NAGAR SERVICE AUSTRALIA/--
MB42480 12/02/15 5.05 07/05/84 B.TECH(BIO-TECH), MBA(FIN), PG IN ENVIRONMENT MGMT(CANADA) A.NAGAR MINISTRY OF MINES GOVT.OF CANADA/30 LAC PA
MB42479 12/02/15 5.07 21/07/85 B.PHARM PUNE QC EXECUTIVE PUNE/50000/-PM
MB42478 12/02/15 5.07 29/06/90 BE E&TC PGDBA PUNE S/W ENGINEER AT MNC IN PUNE/ PA
MB42477 12/02/15 5.07 03/06/89 BE & PGDBA (FINANCE) KOLHAPUR IT ANALYST (TEAM LEAD) IN TCS BANGALORE/7.5 LAKS PA
MB42476 12/02/15 5.10 22/10/89 BE(CIVIL) PUNE SERVICE PUNE/30000/-PM
MB42475 11/02/15 5.07 24/04/89 COMPUTER ENGINEERING PUNE BUSINESS ANALYST ,PERSISTENT SYSTEMS PUNE/6,00,000 PA
MB42474 11/02/15 5.10 27/05/86 B E PRODUCTION MASTERS IN MANAGEMENT KOLHAPUR SERVICE PUNE/617000 PA
MB42473 11/02/15 5.05 21/08/85 MA B.ED LATUR BUSINESS LATUR/ PM
MB42472 11/02/15 5.11 22/08/88 B.E (MECHANICAL) AURANGABAD LAZEEZ RESTAURANT PUNE, BOMBAY BORING WORKS WORKSHOP AURANGABAD /100000+ PM
MB42471 11/02/15 5.04 27/11/86 BE(MECH) M.TECH MUMBAI MUMBAI/7 LAC PA
MB42470 11/02/15 5.05 04/02/85 M SC COMPUTER PUNE SOFTWARE ENGINEER PUNE/70,000/- PM
MB42469 11/02/15 5.09 28/09/86 MSC(MICROBIO), PHD PUNE APPEARING FOR POST DOCTORATE DELHI /--
MB42468 11/02/15 5.07 14/05/82 MCOM(COSTING), ICWA(INTER), DTL, PUNE ASST.MANAGER IN GERMAN CAR MFG MNC (VOLKSWAGON) PUNE/55000/- PM
MB42467 11/02/15 5.08 13/05/89 MBBS NANDED PREPARING FOR PG NANDED/ PM
MB42466 11/02/15 5.05 27/02/86 B.E.,ME(FINAL PURSUING) SANGLI SELF EMPLOYED (EDUCATION) SANGLI/400000 PA
MB42465 11/02/15 5.10 07/06/87 MBA,BSC NAVI MUMBAI BUSINESS NAVI MUMBAI/1 LAC PM
MB42464 11/02/15 5.10 09/11/85 B.Tech Mechanical (filed 2 patents) PARBHANI Sr.Design engineer, ABB Ltd, (moving to Pune for new company/12.3 LAC PA
MB42463 11/02/15 5.07 21/05/83 B.ARCH A.NAGAR OWN FIRM PUNE/70000/-PM
MB42462 10/02/15 5.10 11/11/88 ME MECHANICAL (MANUFACTURING) NAVI MUMBAI SERVICE NAVI MUMBAI/550000 PA
MB42461 10/02/15 5.08 21/09/86 BSC CHEMISTRY AND HIGHER LEVEL COMPUTER LITERACY. MUMBAI REGIONAL MANAGER FOR 2 STATES AT ALEMBIC PHARMACEUTICALS. MUMBAI/6.9 lac pa
MB42460 10/02/15 5.11 24/10/83 B.E. COMPUTER NASHIK OWN SOFTWARE DEVELOPMENT BUSINESS /12 LAC PA
MB42459 10/02/15 5.10 11/03/86 MSC(BIOCHEM) AURANGABAD lecturer in privte coaching institution aurangabad/75000/-PM
MB42458 10/02/15 5.08 30/12/86 B.E (I.T) & MBA (HR) PUNE SENIOR SYSTEM ENGINEER PUNE/--
MB42457 10/02/15 6.00 29/04/88 BAMS, MD LATUR Ayurvedic physician, assistant professor/ PM
MB42456 10/02/15 5.06 15/06/83 BE(CIVIL) SOLAPUR SERVICE PUNE/--
MB42455 10/02/15 5.07 22/02/86 BSC,ENG.MEDIUM, ANIMATION, FOOTBALL COACH PUNE SERVICE PUNE/
MB42454 10/02/15 5.08 01/10/88 BE(PROD) A.NAGAR SERVICE A.NAGAR/--
MB42453 10/02/15 5.05 27/12/83 BE(MECH), MBA(MARKETING) PUNE MNC / STRATEGY PLANNING ANALYST / PUNE/8 LAC PA
MB42452 10/02/15 5.09 27/04/88 B.E.ELECTRONICS & TELECOM. SOLAPUR TATA CONSULTANCY SERVICES PUNE/50000 PM
MB42451 10/02/15 5.10 24/08/87 BE(IT) PUNE SOFTWARE ENGINEER,INFOSYS PUNE/7.2 LAC PA
MB42450 10/02/15 5.07 09/06/85 BE (CS) BANGALORE S/W ENGINEER BANGALORE/700000 PA
MB42449 10/02/15 5.06 04/11/92 DME A.NAGAR BUSINESS/8 LAC PA
MB42448 09/02/15 5.11 28/04/87 BE(COMP) PUNE ASST.MANAGER MNC/10 LAC PA
MB42447 09/02/15 5.09 20/02/86 MBA- MARKETING MUMBAI BUSINESS MUMBAI/1,00,000/- PM
MB42445 09/02/15 5.09 04/07/84 BAMS, MD SANGLI OWN CLINIC PUNE/1 LAC
MB42444 09/02/15 5.06 30/07/92 BCOM SOLAPUR BUSINESS IN BIHAR/100000/-PM
MB42443 09/02/15 5.05 27/07/87 B.E.COMPUTER PUNE SOFTWARE DEVELOPER PUNE/62000 PM
MB42442 09/02/15 5.08 28/10/86 B.TECH IN MECH ENGINEERING, MBA PUNE SR.DESIGN ENGINEER MNC PUNE/9.5 LAC/-PA
MB42441 09/02/15 5.11 10/04/89 MBA(OPERATIONS) MUMBAI BUSINESS/JOB /1 LAC PM
MB42440 09/02/15 5.08 24/06/81 BSC(CHEM), MCA SANGLI S/W ENGINEER PUNE/45000/-PM
MB42439 09/02/15 5.10 05/10/83 B.TECH COMPUTERS EGG PUNE SENIOR SOFTWARE ENGINEER PUNE/13 LAC PA
MB42438 09/02/15 5.08 26/07/85 MBBS, MD RADIODIAGNOSIS AURANGABAD CONSULTANT RADIOLOGIST KERALA/2.5 LAC PM
MB42437 09/02/15 5.06 19/04/86 MBBS, MD ANESTHESIA(2NDYEAR) MUMBAI STUDENT MUMBAI/5 LACS PA
MB42436 09/02/15 5.10 16/05/84 M.B.B.S.M.D.(PSYCHIATRY) WASHIM SERVICE IN CENTRAL RLY AT MUMBAI/75000/- PM
MB42435 09/02/15 6.00 20/12/81 BE MECH, MBA FINANCE AMRAVATI MANAGER, HDFC BANK LTD MUMBAI/1200000 PA
MB42434 09/02/15 5.07 06/12/87 MECHANICAL ENGINEER MUMBAI SERVICE (ONGC) MUMBAI/600000 PA
MB42433 09/02/15 5.11 07/02/86 MCA PUNE SERVICE PUNE/6.5 PA
MB42432 09/02/15 5.06 12/06/85 B E KOLHAPUR EVENT MANAGEMENT KOLHAPUR/60000 PM
MB42431 08/02/15 5.03 12/03/83 BCS, MCA KOLHAPUR SERVICE PUNE/50000 PM
MB42430 08/02/15 5.10 01/06/86 BE(ELECTRONICS) SOLAPUR INFOSYS-PUNE/7 LAC PA
MB42429 08/02/15 5.10 31/03/86 BE(COMP), MBA(FIN) PUNE SALES TAX INSPECTOR PUNE(PREPARING FOR MPSC/UPSC EXAMS), (WORKED AT ASSISTANT IN MANTRALAYA MUMBAI /35000/-PM
MB42428 08/02/15 5.09 27/07/82 CA(FINAL), CS(FINAL 2 GROUP PASS),MCOM, GDC&A A.NAGAR SERVICE IN NGO PUNE/6 LAC PA
MB42427 08/02/15 5.07 04/07/80 BE(MECH), COEP PUNE SERVICE DY.MANAGER PUNE/7 LAC PA
MB42426 08/02/15 5.06 13/07/85 B.E COMP SCIENCE PUNE SOFTWARE CONSULTANT /1400000 PA
MB42425 08/02/15 5.09 29/04/88 CA, MCOM, LLB PUNE FUNCTIONAL CONSULTANT IN COGNIZANT PUNE/--
MB42424 08/02/15 5.10 29/03/89 BAMS PUNE OWN CLINIC PUNE/70000/-PM
MB42423 08/02/15 5.11 11/01/87 MSC(AGRI) SATARA CLASS II OFFICER PSI GADCHIROLI/40000/-PM
MB42422 08/02/15 5.10 25/05/86 MSW(HRM), BA(ECO) PUNE SERVICE IN AKSHARBHARATI PUNE/--
MB42421 08/02/15 5.08 13/11/86 BAMS, DGM, PGDEMS A.NAGAR OWN MULTYSPECIALITY & CRITICAL CARE HOSPITAL PUNE/--
MB42420 08/02/15 5.06 30/07/78 DIP.IN COMP., BCOM, MCSA, PURSUING PGDIT PUNE IT System Engineer / Support Engineer /2.76 LAC PA
MB42419 07/02/15 5.10 16/12/82 M.D. general practice THANE medical practice /1 LAC PM
MB42418 07/02/15 5.10 10/05/87 DIP.IN MECHANICAL ENGINEER PUNE SERVICE DESIGN ENGG IN TECH MAHINDRA PUNE/--
MB42417 07/02/15 6.00 22/10/85 BE(E&TC) PUNE SERVICE PUNE/60000/-PM
MB42416 07/02/15 5.07 09/09/85 BE(E&TC) PUNE SR.PROJECT ENGINEER PUNE/32000/- PM
MB42415 07/02/15 5.08 07/12/84 MCOM PUNE ACCOUNT ASSISTANT PUNE/22000/-PM
MB42414 07/02/15 6.01 09/05/85 MASTERS IN AEROSPACE ENGG. PALGHAR DESIGN ENGINEER IN ITC INFOTECH/6 LAC PA
MB42413 07/02/15 5.07 17/08/89 MBA PUNE FINANCE MANAGER PUNE/76000 PM
MB42412 07/02/15 5.09 17/06/83 BE, MS(USA) NASHIK MATERIAL ENGG., INVSAGE TECHNOLOGIES INC,CALIFORNIA ,USA /--
MB42411 07/02/15 5.11 23/08/87 BE(IT) PUNE SR.QA ENGINEER PUNE/40000/-PM
MB42410 07/02/15 5.07 29/10/84 MBBS DMRD SANGLI RADIOLOGIST / PM
 
    page 1 of 13
 
Home | Rules | Search | Enroll | Grooms | Brides | Divorcee | Response | Magazine | Success Stories | Contact Us